Location: Newark
(47.4417°N, 1.1394°W)
Time: 18:37:31
(UTC+00:00)

Envisat - Pass Details

Date: 17 November 2019
Orbit: 764 x 766 km, 98.1° (Epoch: 08 December)

Event Time Altitude Azimuth Distance (km) Brightness Sun altitude
Rises 05:33:36 0° 30° (NNE) 3,242 6.5 -16.4°
Reaches altitude 10° 05:37:04 10° 55° (NE) 2,309 6.1 -15.9°
Maximum altitude 05:39:45 14° 87° (E) 2,021 6.3 -15.4°
Drops below altitude 10° 05:42:25 10° 119° (ESE) 2,299 6.7 -15.0°
Sets 05:45:51 0° 144° (SE) 3,219 7.0 -14.4°
